Location: Napier
(39.4830°S, 176.9170°E)
Time: 19:22:49
(UTC+13:00)

Cosmos 1933 - Pass Details

Date: 24 January 2019
Orbit: 548 x 564 km, 82.5° (Epoch: 21 February)

Event Time Altitude Azimuth Distance (km) Brightness Sun altitude
Exits shadow 22:58:32 26° 316° (NW) 1,145 4.8 -22.1°
Maximum altitude 23:00:27 44° 259° (W) 798 4.4 -22.4°
Drops below altitude 10° 23:04:27 10° 186° (S) 1,889 6.9 -22.8°
Sets 23:06:45 0° 179° (S) 2,797 7.8 -23.1°
